| time (UTC) | temp F | wind direction | speed MPH | gust MPH | rain 1hr in | rain 24hr in | rain mn in | humidity % | barometer mb |
| 20260505230559 | 55 | 290 | 5.0 | 13.0 | 0.00 | 0.00 | 0.00 | 37 | 1008.8 |
| 20260505230104 | 55 | 288 | 5.0 | 15.0 | 0.00 | 0.00 | 0.00 | 37 | 1008.9 |
| 20260505225602 | 55 | 298 | 5.0 | 15.0 | 0.00 | 0.00 | 0.00 | 37 | 1009.0 |
| 20260505225059 | 55 | 304 | 6.0 | 12.0 | 0.00 | 0.00 | 0.00 | 36 | 1009.0 |
| 20260505224603 | 55 | 311 | 7.0 | 15.0 | 0.00 | 0.00 | 0.00 | 37 | 1009.0 |
| 20260505224102 | 56 | 277 | 5.0 | 15.0 | 0.00 | 0.00 | 0.00 | 36 | 1008.9 |
| 20260505223559 | 56 | 242 | 4.0 | 13.0 | 0.00 | 0.00 | 0.00 | 36 | 1008.7 |
| 20260505223105 | 56 | 269 | 6.0 | 13.0 | 0.00 | 0.00 | 0.00 | 36 | 1008.8 |
| 20260505222559 | 56 | 293 | 6.0 | 14.0 | 0.00 | 0.00 | 0.00 | 37 | 1008.8 |
| 20260505222059 | 56 | 281 | 6.0 | 14.0 | 0.00 | 0.00 | 0.00 | 36 | 1008.9 |
| 20260505221602 | 56 | 237 | 6.0 | 14.0 | 0.00 | 0.00 | 0.00 | 37 | 1008.9 |
| 20260505221059 | 56 | 292 | 6.0 | 15.0 | 0.00 | 0.00 | 0.00 | 36 | 1008.9 |
| 20260505220559 | 56 | 317 | 6.0 | 15.0 | 0.00 | 0.00 | 0.00 | 36 | 1008.9 |
| 20260505220107 | 56 | 273 | 4.0 | 16.0 | 0.00 | 0.00 | 0.00 | 38 | 1008.9 |
| 20260505215603 | 56 | 267 | 4.0 | 16.0 | 0.00 | 0.00 | 0.00 | 37 | 1009.0 |
| 20260505215059 | 56 | 276 | 6.0 | 14.0 | 0.00 | 0.00 | 0.00 | 37 | 1009.0 |
| 20260505214612 | 56 | 313 | 7.0 | 17.0 | 0.00 | 0.00 | 0.00 | 36 | 1008.9 |
| 20260505214059 | 56 | 291 | 7.0 | 17.0 | 0.00 | 0.00 | 0.00 | 36 | 1008.9 |
| 20260505213558 | 56 | 288 | 9.0 | 17.0 | 0.00 | 0.00 | 0.00 | 35 | 1008.8 |
| 20260505213059 | 56 | 300 | 8.0 | 18.0 | 0.00 | 0.00 | 0.00 | 35 | 1008.9 |
| 20260505212559 | 57 | 257 | 7.0 | 18.0 | 0.00 | 0.00 | 0.00 | 34 | 1008.9 |
| 20260505212059 | 57 | 246 | 5.0 | 16.0 | 0.00 | 0.00 | 0.00 | 36 | 1008.9 |
| 20260505211645 | 56 | 314 | 4.0 | 14.0 | 0.00 | 0.00 | 0.00 | 36 | 1008.9 |
| 20260505211101 | 56 | 292 | 6.0 | 15.0 | 0.00 | 0.00 | 0.00 | 36 | 1008.9 |
| 20260505210558 | 56 | 303 | 7.0 | 15.0 | 0.00 | 0.00 | 0.00 | 35 | 1008.9 |
| 20260505210100 | 56 | 286 | 7.0 | 15.0 | 0.00 | 0.00 | 0.00 | 36 | 1008.9 |
| 20260505205559 | 56 | 302 | 7.0 | 15.0 | 0.00 | 0.00 | 0.00 | 35 | 1009.0 |
| 20260505205100 | 56 | 284 | 8.0 | 13.0 | 0.00 | 0.00 | 0.00 | 36 | 1009.0 |
| 20260505204615 | 56 | 282 | 7.0 | 17.0 | 0.00 | 0.00 | 0.00 | 35 | 1008.9 |
| 20260505204059 | 55 | 284 | 7.0 | 17.0 | 0.00 | 0.00 | 0.00 | 35 | 1008.9 |
| 20260505203601 | 56 | 259 | 8.0 | 16.0 | 0.00 | 0.00 | 0.00 | 35 | 1009.1 |
| 20260505203101 | 56 | 254 | 7.0 | 15.0 | 0.00 | 0.00 | 0.00 | 34 | 1009.2 |
| 20260505202601 | 56 | 298 | 6.0 | 14.0 | 0.00 | 0.00 | 0.00 | 32 | 1009.3 |
| 20260505202059 | 56 | 321 | 7.0 | 15.0 | 0.00 | 0.00 | 0.00 | 33 | 1009.2 |
| 20260505201559 | 56 | 289 | 7.0 | 15.0 | 0.00 | 0.00 | 0.00 | 32 | 1009.2 |
| 20260505201059 | 57 | 274 | 5.0 | 16.0 | 0.00 | 0.00 | 0.00 | 34 | 1009.1 |
| 20260505200559 | 57 | 300 | 7.0 | 16.0 | 0.00 | 0.00 | 0.00 | 34 | 1009.2 |
| 20260505195558 | 57 | 244 | 4.0 | 14.0 | 0.00 | 0.00 | 0.00 | 34 | 1009.2 |
| 20260505195059 | 57 | 283 | 6.0 | 17.0 | 0.00 | 0.00 | 0.00 | 36 | 1009.2 |
| 20260505194605 | 57 | 264 | 6.0 | 19.0 | 0.00 | 0.00 | 0.00 | 33 | 1009.3 |
| 20260505194059 | 57 | 254 | 7.0 | 19.0 | 0.00 | 0.00 | 0.00 | 30 | 1009.4 |
| 20260505193558 | 57 | 306 | 8.0 | 19.0 | 0.00 | 0.00 | 0.00 | 32 | 1009.3 |
| 20260505193102 | 57 | 271 | 6.0 | 22.0 | 0.00 | 0.00 | 0.00 | 31 | 1009.3 |
| 20260505192602 | 57 | 258 | 8.0 | 22.0 | 0.00 | 0.00 | 0.00 | 32 | 1009.4 |
| 20260505192059 | 57 | 302 | 8.0 | 18.0 | 0.00 | 0.00 | 0.00 | 31 | 1009.5 |
| 20260505191604 | 57 | 265 | 8.0 | 18.0 | 0.00 | 0.00 | 0.00 | 31 | 1009.6 |
| 20260505191058 | 57 | 286 | 5.0 | 15.0 | 0.00 | 0.00 | 0.00 | 35 | 1009.6 |
| 20260505190601 | 57 | 252 | 8.0 | 16.0 | 0.00 | 0.00 | 0.00 | 33 | 1009.6 |
| 20260505190114 | 56 | 248 | 4.0 | 17.0 | 0.00 | 0.00 | 0.00 | 35 | 1009.7 |
| 20260505185559 | 56 | 313 | 8.0 | 17.0 | 0.00 | 0.00 | 0.00 | 34 | 1009.5 |
| 20260505185059 | 56 | 311 | 9.0 | 17.0 | 0.00 | 0.00 | 0.00 | 33 | 1009.7 |
| 20260505184600 | 56 | 323 | 7.0 | 15.0 | 0.00 | 0.00 | 0.00 | 33 | 1009.5 |
| 20260505184059 | 56 | 259 | 7.0 | 15.0 | 0.00 | 0.00 | 0.00 | 34 | 1009.6 |
| 20260505183559 | 56 | 281 | 7.0 | 16.0 | 0.00 | 0.00 | 0.00 | 34 | 1009.6 |
| 20260505183101 | 56 | 306 | 9.0 | 16.0 | 0.00 | 0.00 | 0.00 | 34 | 1009.5 |
| 20260505182559 | 56 | 227 | 9.0 | 18.0 | 0.00 | 0.00 | 0.00 | 35 | 1009.4 |
| 20260505182058 | 56 | 269 | 9.0 | 18.0 | 0.00 | 0.00 | 0.00 | 34 | 1009.5 |
| 20260505181642 | 56 | 275 | 8.0 | 18.0 | 0.00 | 0.00 | 0.00 | 36 | 1009.5 |
| 20260505181059 | 56 | 341 | 9.0 | 18.0 | 0.00 | 0.00 | 0.00 | 35 | 1009.3 |
| 20260505180600 | 56 | 273 | 11.0 | 18.0 | 0.00 | 0.00 | 0.00 | 34 | 1009.3 |
| 20260505180108 | 56 | 262 | 7.0 | 14.0 | 0.00 | 0.00 | 0.00 | 38 | 1009.0 |
| 20260505175559 | 55 | 285 | 6.0 | 19.0 | 0.00 | 0.00 | 0.00 | 34 | 1009.0 |
| 20260505175059 | 55 | 265 | 11.0 | 19.0 | 0.00 | 0.00 | 0.00 | 35 | 1009.0 |
| 20260505174559 | 55 | 275 | 8.0 | 15.0 | 0.00 | 0.00 | 0.00 | 34 | 1008.9 |
| 20260505174059 | 55 | 274 | 6.0 | 21.0 | 0.00 | 0.00 | 0.00 | 37 | 1008.9 |
| 20260505173558 | 55 | 269 | 8.0 | 21.0 | 0.00 | 0.00 | 0.00 | 37 | 1008.9 |
| 20260505173101 | 54 | 267 | 7.0 | 21.0 | 0.00 | 0.00 | 0.00 | 35 | 1009.1 |
| 20260505172559 | 54 | 312 | 6.0 | 17.0 | 0.00 | 0.00 | 0.00 | 38 | 1009.0 |
| 20260505172058 | 54 | 257 | 6.0 | 17.0 | 0.00 | 0.00 | 0.00 | 36 | 1009.0 |
| 20260505171605 | 54 | 269 | 9.0 | 17.0 | 0.00 | 0.00 | 0.00 | 35 | 1009.0 |
| 20260505171059 | 54 | 329 | 7.0 | 17.0 | 0.00 | 0.00 | 0.00 | 36 | 1009.1 |
| 20260505170558 | 54 | 277 | 9.0 | 17.0 | 0.00 | 0.00 | 0.00 | 36 | 1009.2 |
| 20260505170100 | 54 | 280 | 6.0 | 16.0 | 0.00 | 0.00 | 0.00 | 39 | 1009.2 |
| 20260505165558 | 54 | 58 | 9.0 | 18.0 | 0.00 | 0.00 | 0.00 | 35 | 1009.2 |
| 20260505165058 | 55 | 294 | 8.0 | 18.0 | 0.00 | 0.00 | 0.00 | 38 | 1009.0 |
| 20260505164600 | 55 | 314 | 6.0 | 14.0 | 0.00 | 0.00 | 0.00 | 37 | 1009.0 |
| 20260505164059 | 54 | 288 | 6.0 | 15.0 | 0.00 | 0.00 | 0.00 | 39 | 1008.8 |
| 20260505163601 | 54 | 213 | 5.0 | 15.0 | 0.00 | 0.00 | 0.00 | 41 | 1008.7 |
| 20260505163101 | 54 | 267 | 7.0 | 15.0 | 0.00 | 0.00 | 0.00 | 38 | 1008.7 |
| 20260505162559 | 54 | 269 | 5.0 | 18.0 | 0.00 | 0.00 | 0.00 | 39 | 1008.9 |
| 20260505162100 | 54 | 302 | 7.0 | 18.0 | 0.00 | 0.00 | 0.00 | 38 | 1008.9 |
| 20260505161600 | 53 | 313 | 9.0 | 18.0 | 0.00 | 0.00 | 0.00 | 40 | 1008.8 |
| 20260505161101 | 53 | 279 | 5.0 | 15.0 | 0.00 | 0.00 | 0.00 | 40 | 1008.9 |
| 20260505160559 | 53 | 265 | 6.0 | 15.0 | 0.00 | 0.00 | 0.00 | 43 | 1008.8 |
| 20260505153100 | 51 | 302 | 7.0 | 13.0 | 0.00 | 0.00 | 0.00 | 42 | 1008.8 |
| 20260505152559 | 51 | 266 | 7.0 | 13.0 | 0.00 | 0.00 | 0.00 | 44 | 1008.9 |
| 20260505152058 | 51 | 284 | 6.0 | 14.0 | 0.00 | 0.00 | 0.00 | 44 | 1008.9 |
| 20260505151605 | 51 | 274 | 7.0 | 14.0 | 0.00 | 0.00 | 0.00 | 44 | 1008.9 |
| 20260505151106 | 50 | 247 | 5.0 | 13.0 | 0.00 | 0.00 | 0.00 | 45 | 1009.1 |
| 20260505150559 | 50 | 265 | 5.0 | 13.0 | 0.00 | 0.00 | 0.00 | 44 | 1009.2 |
| 20260505140559 | 49 | 238 | 5.0 | 12.0 | 0.00 | 0.00 | 0.00 | 51 | 1009.2 |
| 20260505140109 | 49 | 298 | 3.0 | 12.0 | 0.00 | 0.00 | 0.00 | 50 | 1009.3 |
| 20260505124600 | 47 | 266 | 3.0 | 8.0 | 0.00 | 0.00 | 0.00 | 52 | 1009.0 |
| 20260505124058 | 47 | 268 | 2.0 | 8.0 | 0.00 | 0.00 | 0.00 | 52 | 1009.0 |
| 20260505123558 | 47 | 283 | 2.0 | 6.0 | 0.00 | 0.00 | 0.00 | 52 | 1009.0 |
| 20260505123111 | 47 | 294 | 1.0 | 6.0 | 0.00 | 0.00 | 0.00 | 51 | 1009.1 |
| 20260505122559 | 47 | 279 | 2.0 | 8.0 | 0.00 | 0.00 | 0.00 | 51 | 1009.2 |
| 20260505122059 | 47 | 292 | 1.0 | 8.0 | 0.00 | 0.00 | 0.00 | 52 | 1009.2 |
| 20260505121559 | 47 | 284 | 4.0 | 8.0 | 0.00 | 0.00 | 0.00 | 51 | 1009.4 |
| 20260505121059 | 47 | 281 | 1.0 | 7.0 | 0.00 | 0.00 | 0.00 | 52 | 1009.3 |
| 20260505120602 | 47 | 0 | 1.0 | 7.0 | 0.00 | 0.00 | 0.00 | 53 | 1009.1 |
| 20260505120128 | 47 | 270 | 2.0 | 7.0 | 0.00 | 0.00 | 0.00 | 52 | 1009.3 |
| 20260505115559 | 47 | 288 | 2.0 | 9.0 | 0.00 | 0.00 | 0.00 | 52 | 1009.2 |
| 20260505115058 | 47 | 315 | 3.0 | 9.0 | 0.00 | 0.00 | 0.00 | 52 | 1009.3 |
| 20260505114600 | 47 | 306 | 4.0 | 9.0 | 0.00 | 0.00 | 0.00 | 53 | 1008.8 |
| 20260505114058 | 47 | 288 | 3.0 | 9.0 | 0.00 | 0.00 | 0.00 | 52 | 1008.6 |
| 20260505113600 | 47 | 297 | 5.0 | 9.0 | 0.00 | 0.00 | 0.00 | 54 | 1008.2 |
| 20260505113101 | 47 | 316 | 3.0 | 9.0 | 0.00 | 0.00 | 0.00 | 53 | 1007.8 |
| 20260505112559 | 47 | 304 | 2.0 | 9.0 | 0.00 | 0.00 | 0.00 | 53 | 1008.8 |
| 20260505112059 | 47 | 342 | 2.0 | 9.0 | 0.00 | 0.00 | 0.00 | 54 | 1007.7 |
| 20260505111603 | 47 | 22 | 2.0 | 8.0 | 0.00 | 0.00 | 0.00 | 54 | 1006.5 |
| 20260505111058 | 47 | 327 | 2.0 | 6.0 | 0.00 | 0.00 | 0.00 | 53 | 1007.0 |
| 20260505110558 | 47 | 327 | 1.0 | 5.0 | 0.00 | 0.00 | 0.00 | 53 | 1007.1 |
| 20260505110118 | 47 | 320 | 2.0 | 5.0 | 0.00 | 0.00 | 0.00 | 53 | 1007.4 |
| 20260505102103 | 48 | 328 | 5.0 | 12.0 | 0.00 | 0.00 | 0.00 | 51 | 1007.4 |
| 20260505101609 | 48 | 9 | 4.0 | 13.0 | 0.00 | 0.00 | 0.00 | 53 | 1007.0 |
| 20260505101058 | 48 | 13 | 5.0 | 13.0 | 0.00 | 0.00 | 0.00 | 53 | 1007.0 |
| 20260505100558 | 48 | 336 | 5.0 | 13.0 | 0.00 | 0.00 | 0.00 | 53 | 1006.7 |
| 20260505100100 | 48 | 328 | 4.0 | 11.0 | 0.00 | 0.00 | 0.00 | 53 | 1006.5 |
| 20260505095557 | 48 | 324 | 4.0 | 10.0 | 0.00 | 0.00 | 0.00 | 54 | 1006.5 |
| 20260505095100 | 48 | 17 | 3.0 | 10.0 | 0.00 | 0.00 | 0.00 | 54 | 1006.5 |
| 20260505094601 | 48 | 324 | 3.0 | 8.0 | 0.00 | 0.00 | 0.00 | 54 | 1006.6 |
| 20260505094057 | 48 | 304 | 2.0 | 9.0 | 0.00 | 0.00 | 0.00 | 54 | 1006.5 |
| 20260505093601 | 48 | 338 | 4.0 | 12.0 | 0.00 | 0.00 | 0.00 | 54 | 1006.4 |
| 20260505093059 | 48 | 326 | 4.0 | 12.0 | 0.00 | 0.00 | 0.00 | 54 | 1006.4 |
| 20260505092559 | 48 | 327 | 5.0 | 16.0 | 0.00 | 0.00 | 0.00 | 54 | 1006.5 |
| 20260505092059 | 48 | 342 | 8.0 | 16.0 | 0.00 | 0.00 | 0.00 | 54 | 1006.5 |
| 20260505091601 | 49 | 321 | 6.0 | 16.0 | 0.00 | 0.00 | 0.00 | 54 | 1006.5 |
| 20260505091058 | 49 | 331 | 5.0 | 16.0 | 0.00 | 0.00 | 0.00 | 54 | 1006.6 |
| 20260505090558 | 49 | 306 | 8.0 | 16.0 | 0.00 | 0.00 | 0.00 | 54 | 1006.1 |
| 20260505090100 | 49 | 310 | 7.0 | 14.0 | 0.00 | 0.00 | 0.00 | 54 | 1006.2 |
| 20260505085559 | 49 | 340 | 6.0 | 12.0 | 0.00 | 0.00 | 0.00 | 53 | 1006.0 |
| 20260505085059 | 49 | 327 | 6.0 | 11.0 | 0.00 | 0.00 | 0.00 | 52 | 1006.1 |
| 20260505084605 | 50 | 342 | 5.0 | 11.0 | 0.00 | 0.00 | 0.00 | 52 | 1005.9 |
| 20260505084057 | 50 | 315 | 6.0 | 13.0 | 0.00 | 0.00 | 0.00 | 51 | 1005.9 |
| 20260505083557 | 50 | 316 | 7.0 | 13.0 | 0.00 | 0.00 | 0.00 | 51 | 1005.5 |
| 20260505083112 | 50 | 338 | 5.0 | 13.0 | 0.00 | 0.00 | 0.00 | 51 | 1005.3 |
| 20260505082605 | 50 | 328 | 7.0 | 13.0 | 0.00 | 0.00 | 0.00 | 50 | 1005.3 |
| 20260505082103 | 51 | 327 | 5.0 | 11.0 | 0.00 | 0.00 | 0.00 | 50 | 1005.3 |
| 20260505081606 | 51 | 307 | 4.0 | 11.0 | 0.00 | 0.00 | 0.00 | 49 | 1005.3 |
| 20260505081059 | 51 | 314 | 3.0 | 11.0 | 0.00 | 0.00 | 0.00 | 49 | 1005.0 |
| 20260505080559 | 51 | 321 | 4.0 | 13.0 | 0.00 | 0.00 | 0.00 | 49 | 1005.0 |
| 20260505080110 | 52 | 318 | 7.0 | 13.0 | 0.00 | 0.00 | 0.00 | 48 | 1004.8 |
| 20260505075558 | 52 | 319 | 5.0 | 13.0 | 0.00 | 0.00 | 0.00 | 48 | 1004.6 |
| 20260505075102 | 52 | 327 | 4.0 | 16.0 | 0.00 | 0.00 | 0.00 | 47 | 1004.6 |
| 20260505074058 | 53 | 342 | 6.0 | 17.0 | 0.00 | 0.00 | 0.00 | 47 | 1004.2 |
| 20260505073559 | 53 | 338 | 8.0 | 23.0 | 0.00 | 0.00 | 0.00 | 46 | 1004.0 |
| 20260505073103 | 53 | 304 | 10.0 | 23.0 | 0.00 | 0.00 | 0.00 | 46 | 1003.8 |
| 20260505072558 | 54 | 61 | 9.0 | 26.0 | 0.00 | 0.00 | 0.00 | 46 | 1004.0 |
| 20260505072058 | 54 | 315 | 13.0 | 26.0 | 0.00 | 0.00 | 0.00 | 47 | 1004.1 |
| 20260505071559 | 54 | 338 | 10.0 | 18.0 | 0.00 | 0.00 | 0.00 | 48 | 1003.9 |
| 20260505071058 | 54 | 342 | 8.0 | 17.0 | 0.00 | 0.00 | 0.00 | 48 | 1003.6 |
| 20260505070558 | 54 | 342 | 7.0 | 17.0 | 0.00 | 0.00 | 0.00 | 48 | 1003.7 |
| 20260505070106 | 55 | 337 | 7.0 | 17.0 | 0.00 | 0.00 | 0.00 | 48 | 1003.7 |
| 20260505065558 | 55 | 317 | 4.0 | 10.0 | 0.00 | 0.00 | 0.00 | 47 | 1003.8 |
| 20260505065146 | 55 | 316 | 2.0 | 7.0 | 0.00 | 0.00 | 0.00 | 46 | 1003.5 |
| 20260505064653 | 55 | 301 | 1.0 | 9.0 | 0.00 | 0.00 | 0.00 | 46 | 1003.3 |
| 20260505064058 | 56 | 317 | 3.0 | 9.0 | 0.00 | 0.00 | 0.00 | 45 | 1003.3 |
| 20260505063558 | 56 | 338 | 4.0 | 10.0 | 0.00 | 0.00 | 0.00 | 44 | 1003.2 |
| 20260505063104 | 56 | 319 | 4.0 | 10.0 | 0.00 | 0.00 | 0.00 | 44 | 1003.3 |
| 20260505062558 | 56 | 5 | 3.0 | 11.0 | 0.00 | 0.00 | 0.00 | 44 | 1003.3 |
| 20260505062058 | 56 | 310 | 4.0 | 11.0 | 0.00 | 0.00 | 0.00 | 43 | 1003.3 |
| 20260505061600 | 57 | 305 | 5.0 | 15.0 | 0.00 | 0.00 | 0.00 | 43 | 1003.1 |
| 20260505061058 | 57 | 296 | 5.0 | 15.0 | 0.00 | 0.00 | 0.00 | 43 | 1003.2 |
| 20260505060606 | 57 | 321 | 5.0 | 15.0 | 0.00 | 0.00 | 0.00 | 43 | 1003.0 |
| 20260505060110 | 57 | 300 | 5.0 | 12.0 | 0.00 | 0.00 | 0.00 | 43 | 1003.0 |
| 20260505055558 | 57 | 314 | 5.0 | 12.0 | 0.00 | 0.00 | 0.00 | 42 | 1003.0 |
| 20260505055101 | 57 | 303 | 4.0 | 9.0 | 0.00 | 0.00 | 0.00 | 43 | 1003.0 |
| 20260505054602 | 58 | 331 | 2.0 | 10.0 | 0.00 | 0.00 | 0.00 | 42 | 1002.9 |
| 20260505054058 | 58 | 273 | 3.0 | 10.0 | 0.00 | 0.00 | 0.00 | 42 | 1003.0 |
| 20260505053557 | 58 | 281 | 3.0 | 10.0 | 0.00 | 0.00 | 0.00 | 42 | 1003.0 |
| 20260505053100 | 58 | 325 | 3.0 | 10.0 | 0.00 | 0.00 | 0.00 | 41 | 1003.1 |
| 20260505052558 | 58 | 319 | 3.0 | 10.0 | 0.00 | 0.00 | 0.00 | 41 | 1003.0 |
| 20260505052058 | 58 | 257 | 4.0 | 10.0 | 0.00 | 0.00 | 0.00 | 41 | 1002.9 |
| 20260505051610 | 58 | 290 | 3.0 | 10.0 | 0.00 | 0.00 | 0.00 | 40 | 1002.8 |
| 20260505051059 | 58 | 312 | 4.0 | 12.0 | 0.00 | 0.00 | 0.00 | 41 | 1002.6 |
| 20260505050558 | 59 | 282 | 3.0 | 12.0 | 0.00 | 0.00 | 0.00 | 41 | 1002.5 |
| 20260505041609 | 60 | 280 | 2.0 | 10.0 | 0.00 | 0.00 | 0.00 | 43 | 1002.1 |
| 20260505041101 | 61 | 243 | 3.0 | 10.0 | 0.00 | 0.00 | 0.00 | 43 | 1001.9 |
| 20260505040558 | 61 | 325 | 3.0 | 10.0 | 0.00 | 0.00 | 0.00 | 43 | 1001.9 |
| 20260505040107 | 61 | 252 | 3.0 | 10.0 | 0.00 | 0.00 | 0.00 | 43 | 1001.9 |
| 20260505035559 | 62 | 275 | 3.0 | 12.0 | 0.00 | 0.00 | 0.00 | 42 | 1001.7 |
| 20260505035058 | 62 | 303 | 4.0 | 12.0 | 0.00 | 0.00 | 0.00 | 42 | 1001.6 |
| 20260505034615 | 62 | 273 | 7.0 | 12.0 | 0.00 | 0.00 | 0.00 | 41 | 1001.4 |
| 20260505034058 | 63 | 271 | 4.0 | 12.0 | 0.00 | 0.00 | 0.00 | 41 | 1001.3 |
| 20260505033558 | 63 | 284 | 6.0 | 10.0 | 0.00 | 0.00 | 0.00 | 40 | 1001.2 |
| 20260505033102 | 63 | 297 | 4.0 | 10.0 | 0.00 | 0.00 | 0.00 | 40 | 1001.1 |
| 20260505032558 | 64 | 265 | 4.0 | 9.0 | 0.00 | 0.00 | 0.00 | 40 | 1001.0 |
| 20260505032057 | 64 | 286 | 5.0 | 11.0 | 0.00 | 0.00 | 0.00 | 39 | 1000.7 |
| 20260505031606 | 65 | 315 | 4.0 | 13.0 | 0.00 | 0.00 | 0.00 | 39 | 1000.9 |
| 20260505031058 | 65 | 325 | 5.0 | 13.0 | 0.00 | 0.00 | 0.00 | 38 | 1001.1 |
| 20260505030605 | 66 | 293 | 5.0 | 13.0 | 0.00 | 0.00 | 0.00 | 37 | 1001.2 |
| 20260505030115 | 66 | 259 | 7.0 | 16.0 | 0.00 | 0.00 | 0.00 | 37 | 1001.2 |
| 20260505025559 | 67 | 282 | 7.0 | 19.0 | 0.00 | 0.00 | 0.00 | 36 | 1001.1 |
| 20260505025102 | 67 | 299 | 7.0 | 19.0 | 0.00 | 0.00 | 0.00 | 37 | 1001.0 |
| 20260505024612 | 68 | 300 | 8.0 | 19.0 | 0.00 | 0.00 | 0.00 | 37 | 1000.8 |
| 20260505024058 | 68 | 292 | 7.0 | 16.0 | 0.00 | 0.00 | 0.00 | 38 | 1000.7 |
| 20260505023558 | 68 | 269 | 5.0 | 12.0 | 0.00 | 0.00 | 0.00 | 39 | 1000.6 |
| 20260505023101 | 69 | 285 | 5.0 | 16.0 | 0.00 | 0.00 | 0.00 | 39 | 1000.3 |
| 20260505022601 | 69 | 283 | 5.0 | 16.0 | 0.00 | 0.00 | 0.00 | 39 | 1000.4 |
| 20260505022058 | 69 | 310 | 7.0 | 19.0 | 0.00 | 0.00 | 0.00 | 39 | 1000.3 |
| 20260505021558 | 69 | 249 | 6.0 | 19.0 | 0.00 | 0.00 | 0.00 | 42 | 1000.2 |
| 20260505021057 | 69 | 275 | 11.0 | 19.0 | 0.00 | 0.00 | 0.00 | 43 | 1000.2 |
| 20260505020557 | 69 | 265 | 7.0 | 17.0 | 0.00 | 0.00 | 0.00 | 47 | 1000.1 |
| 20260505020108 | 70 | 243 | 7.0 | 16.0 | 0.00 | 0.00 | 0.00 | 48 | 999.8 |
| 20260505015558 | 70 | 249 | 9.0 | 16.0 | 0.00 | 0.00 | 0.00 | 48 | 999.6 |
| 20260505015100 | 70 | 217 | 5.0 | 17.0 | 0.00 | 0.00 | 0.00 | 47 | 999.3 |
| 20260505014603 | 70 | 237 | 9.0 | 17.0 | 0.00 | 0.00 | 0.00 | 47 | 999.1 |
| 20260505014057 | 70 | 215 | 10.0 | 16.0 | 0.00 | 0.00 | 0.00 | 47 | 998.9 |
| 20260505013557 | 70 | 218 | 6.0 | 13.0 | 0.00 | 0.00 | 0.00 | 46 | 998.9 |
| 20260505013101 | 70 | 241 | 5.0 | 13.0 | 0.00 | 0.00 | 0.00 | 45 | 998.8 |
| 20260505012602 | 70 | 221 | 5.0 | 16.0 | 0.00 | 0.00 | 0.00 | 46 | 998.6 |
| 20260505012104 | 70 | 211 | 8.0 | 16.0 | 0.00 | 0.00 | 0.00 | 45 | 998.6 |
| 20260505011603 | 70 | 200 | 9.0 | 16.0 | 0.00 | 0.00 | 0.00 | 45 | 998.5 |
| 20260505011059 | 70 | 213 | 6.0 | 15.0 | 0.00 | 0.00 | 0.00 | 45 | 998.4 |
| 20260505010558 | 70 | 222 | 7.0 | 13.0 | 0.00 | 0.00 | 0.00 | 45 | 998.3 |
| 20260505010111 | 70 | 202 | 7.0 | 13.0 | 0.00 | 0.00 | 0.00 | 45 | 998.2 |
| 20260505005559 | 70 | 244 | 4.0 | 10.0 | 0.00 | 0.00 | 0.00 | 46 | 997.9 |
| 20260505005059 | 71 | 223 | 5.0 | 8.0 | 0.00 | 0.00 | 0.00 | 45 | 997.7 |
| 20260505004632 | 71 | 237 | 5.0 | 10.0 | 0.00 | 0.00 | 0.00 | 46 | 997.4 |
| 20260505004057 | 71 | 237 | 4.0 | 10.0 | 0.00 | 0.00 | 0.00 | 46 | 997.1 |
| 20260505003558 | 71 | 202 | 5.0 | 10.0 | 0.00 | 0.00 | 0.00 | 46 | 997.1 |
| 20260505003102 | 71 | 210 | 6.0 | 10.0 | 0.00 | 0.00 | 0.00 | 45 | 997.1 |
| 20260505002600 | 72 | 202 | 5.0 | 10.0 | 0.00 | 0.00 | 0.00 | 44 | 997.2 |
| 20260505002057 | 72 | 197 | 5.0 | 10.0 | 0.00 | 0.00 | 0.00 | 43 | 997.1 |
| 20260505001558 | 72 | 214 | 6.0 | 11.0 | 0.00 | 0.00 | 0.00 | 42 | 997.1 |
| 20260505001058 | 73 | 204 | 7.0 | 12.0 | 0.00 | 0.00 | 0.00 | 41 | 996.9 |
| 20260505000559 | 73 | 204 | 6.0 | 12.0 | 0.00 | 0.00 | 0.00 | 41 | 996.8 |
| 20260505000113 | 73 | 221 | 5.0 | 9.0 | 0.00 | 0.00 | 0.00 | 42 | 996.8 |
| 20260504235558 | 73 | 209 | 5.0 | 12.0 | 0.00 | 0.00 | 0.00 | 42 | 996.8 |
| 20260504235058 | 73 | 215 | 5.0 | 12.0 | 0.00 | 0.00 | 0.00 | 42 | 996.8 |
| 20260504234558 | 73 | 221 | 6.0 | 12.0 | 0.00 | 0.00 | 0.00 | 42 | 996.9 |
| 20260504234058 | 73 | 223 | 6.0 | 14.0 | 0.00 | 0.00 | 0.00 | 42 | 996.9 |
| 20260504233559 | 73 | 218 | 5.0 | 14.0 | 0.00 | 0.00 | 0.00 | 42 | 997.1 |
| 20260504233109 | 74 | 235 | 7.0 | 18.0 | 0.00 | 0.00 | 0.00 | 42 | 997.1 |
| 20260504232558 | 74 | 209 | 8.0 | 18.0 | 0.00 | 0.00 | 0.00 | 41 | 997.2 |
| 20260504232057 | 74 | 215 | 8.0 | 23.0 | 0.00 | 0.00 | 0.00 | 41 | 997.3 |
| 20260504231622 | 74 | 239 | 14.0 | 23.0 | 0.00 | 0.00 | 0.00 | 41 | 997.2 |
| 20260504231059 | 74 | 223 | 11.0 | 21.0 | 0.00 | 0.00 | 0.00 | 40 | 997.7 |